SCP
2 2 1 1 0 0 0 0 0 0 0 0 0 0 0 0 0 0 0 0 0 0 0 0 0 0 0 0 0 0 0 0 0 0 0 0 0 0 0 0 0 0 0
2 1 1 1 0 0 0 0 0 0 0 0 0 0 0 0 0 0 0 0 0 0 0 0 0 0 0 0 0 0 0 0 0 0 0 0 0 0 0 0 0 0 0
1 1 1 1 0 0 0 0 0 0 0 0 0 0 0 0 0 0 0 0 0 0 0 0 0 0 0 0 0 0 0 0 0 0 0 0 0 0 0 0 0 0 0
0 0 0 0 0 0 0 0 0 0 0 0 0 0 0 0 0 0 0 0 0 0 0 0 0 0 0 0 0 0 0 0 0 0 0 0 0 0 0 0 0 0 0
0 0 0 0 0 0 0 0 0 0 0 0 0 0 0 0 0 0 0 0 0 0 0 0 0 0 0 0 0 0 0 0 0 0 0 0 0 0 0 0 0 0 0
0 0 0 0 0 0 0 0 0 0 0 0 0 0 0 0 0 0 0 0 0 0 0 0 0 0 0 0 0 0 0 0 0 0 0 0 0 0 0 0 0 0 0
0 0 0 0 0 0 0 0 0 0 0 0 0 0 0 0 0 0 0 0 0 0 0 0 0 0 0 0 0 0 0 0 0 0 0 0 0 0 0 0 0 0 0
0 0 0 0 0 0 0 0 0 0 0 0 0 0 0 0 0 0 0 0 0 0 0 0 0 0 0 0 0 0 0 0 0 0 0 0 0 0 0 0 0 0 0
0 0 0 0 0 0 0 0 0 0 0 0 0 0 0 0 0 0 0 0 0 0 0 0 0 0 0 0 0 0 0 0 0 0 0 0 0 0 0 0 0 0 0
0 0 0 0 0 0 0 0 0 0 0 0 0 0 0 0 0 0 0 0 0 0 0 0 0 0 0 0 0 0 0 0 0 0 0 0 0 0 0 0 0 0 0
0 0 0 0 0 0 0 0 0 0 0 0 0 0 0 0 0 0 0 0 0 0 0 0 0 0 0 0 0 0 0 0 0 0 0 0 0 0 0 0 0 0 0
0 0 0 0 0 0 0 0 0 0 0 0 0 0 0 0 0 0 0 0 0 0 0 0 0 0 0 0 0 0 0 0 0 0 0 0 0 0 0 0 0 0 0
0 0 0 0 0 0 0 0 0 0 0 0 0 0 0 0 0 0 0 0 0 0 0 0 0 0 0 0 0 0 0 0 0 0 0 0 0 0 0 0 0 0 0
0 0 0 0 0 0 0 0 0 0 0 0 0 0 0 0 0 0 0 0 0 0 0 0 0 0 0 0 0 0 0 0 0 0 0 0 0 0 0 0 0 0 0
0 0 0 0 0 0 0 0 0 0 0 0 0 0 0 0 0 0 0 0 0 0 0 0 0 0 0 0 0 0 0 0 0 0 0 0 0 0 0 0 0 0 0
0 0 0 0 0 0 0 0 0 0 0 0 0 0 0 0 0 0 0 0 0 0 0 0 0 0 0 0 0 0 0 0 0 0 0 0 0 0 0 0 0 0 0
0 0 0 0 0 0 0 0 0 0 0 0 0 0 0 0 0 0 0 0 0 0 0 0 0 0 0 0 0 0 0 0 0 0 0 0 0 0 0 0 0 0 0
0 0 0 0 0 0 0 0 0 0 0 0 0 0 0 0 0 0 0 0 0 0 0 0 0 0 0 0 0 0 0 0 0 0 0 0 0 0 0 0 0 0 0
0 0 0 0 0 0 0 0 0 0 0 0 0 0 0 0 0 0 0 0 0 0 0 0 0 0 0 0 0 0 0 0 0 0 0 0 0 0 0 0 0 0 0
0 0 0 0 0 0 0 0 0 0 0 0 0 0 0 0 0 0 0 0 0 0 0 0 0 0 0 0 0 0 0 0 0 0 0 0 0 0 0 0 0 0 0
0 0 0 0 0 0 0 0 0 0 0 0 0 0 0 0 0 0 0 0 0 0 0 0 0 0 0 0 0 0 0 0 0 0 0 0 0 0 0 0 0 0 0
0 0 0 0 0 0 0 0 0 0 0 0 0 0 0 0 0 0 0 0 0 0 0 0 0 0 0 0 0 0 0 0 0 0 0 0 0 0 0 0 0 0 0
0 0 0 0 0 0 0 0 0 0 0 0 0 0 0 0 0 0 0 0 0 0 0 0 0 0 0 0 0 0 0 0 0 0 0 0 0 0 0 0 0 0 0
0 0 0 0 0 0 0 0 0 0 0 0 0 0 0 0 0 0 0 0 0 0 0 0 0 0 0 0 0 0 0 0 0 0 0 0 0 0 0 0 0 0 0
0 0 0 0 0 0 0 0 0 0 0 0 0 0 0 0 0 0 0 0 0 0 0 0 0 0 0 0 0 0 0 0 0 0 0 0 0 0 0 0 0 0 0
0 0 0 0 0 0 0 0 0 0 0 0 0 0 0 0 0 0 0 0 0 0 0 0 0 0 0 0 0 0 0 0 0 0 0 0 0 0 0 0 0 0 0
Wind_Speed
2 2 2 1 1 1 1 1 1 1 1 1 1 1 1 1 1 0 1 1 1 1 1 1 2 2 1 2 2 2 2 3 5 4 3 3 4 4 5 5 4 3 3
2 2 2 2 2 1 1 1 1 1 1 1 1 1 1 1 1 1 1 1 1 2 2 2 2 2 2 2 1 2 2 2 3 5 4 3 4 4 5 5 5 4 3
2 2 2 2 1 1 1 1 1 1 0 0 0 1 1 1 1 1 1 1 2 2 2 2 2 2 2 2 2 2 2 2 2 3 4 3 3 4 5 5 5 4 4
2 1 1 1 1 1 1 1 1 1 1 1 0 1 1 1 2 2 1 1 1 2 2 2 2 2 3 3 2 3 2 2 2 3 3 3 3 3 3 4 5 4 4
2 1 1 1 1 1 1 1 1 1 1 1 0 1 1 1 2 2 1 2 2 2 2 2 2 3 4 4 3 2 2 2 2 2 3 3 3 3 3 3 4 5 4
2 1 1 1 1 1 1 0 0 0 0 0 0 1 1 2 3 3 3 1 1 1 2 2 2 3 4 6 6 6 5 3 2 2 3 3 4 3 3 3 4 4 4
2 1 1 1 0 0 0 1 0 0 0 0 1 1 1 2 3 3 4 2 1 1 2 2 3 3 5 3 5 6 6 6 5 3 4 4 5 4 4 4 4 4 5
1 1 1 1 1 0 1 0 0 0 0 0 1 1 1 2 4 4 4 1 0 1 2 2 3 3 4 4 3 3 3 4 5 3 3 4 5 4 4 4 5 4 4
1 1 1 1 1 1 1 1 0 0 0 1 1 1 1 2 3 4 4 1 1 2 2 2 3 3 5 6 4 3 4 4 6 6 6 6 8 8 5 3 3 3 4
2 2 2 2 2 2 1 1 0 0 1 1 1 1 1 2 4 5 5 1 1 2 2 2 4 5 6 6 3 3 4 4 4 4 4 5 4 5 5 3 2 3 3
1 1 1 1 2 2 1 1 1 1 0 1 1 2 1 2 3 5 5 2 1 2 2 2 3 6 7 7 5 3 5 5 3 3 3 3 3 2 2 2 2 3 3
1 1 1 1 1 1 1 1 1 1 1 1 1 2 2 2 3 4 5 4 4 2 3 3 3 6 7 7 5 5 6 5 2 2 3 3 3 3 3 2 3 3 3
1 1 1 1 1 1 2 2 1 1 1 1 1 2 2 2 2 4 5 5 5 3 3 5 6 7 6 5 5 6 4 2 2 2 3 3 3 3 3 2 3 3 3
1 1 1 1 1 1 1 2 2 2 2 2 2 2 2 2 2 2 2 3 4 3 3 4 6 6 4 5 4 3 2 2 2 2 3 3 3 3 3 2 3 3 3
1 2 1 1 2 2 2 2 2 3 3 3 2 2 2 3 4 5 4 3 2 3 2 2 2 2 2 2 2 2 2 2 2 2 2 3 3 3 3 3 2 2 2
2 2 2 1 2 2 1 1 3 4 5 5 5 4 4 6 7 7 7 7 6 5 3 2 2 2 2 2 2 3 2 2 2 2 3 3 3 3 4 3 3 2 3
3 2 2 2 2 2 2 2 2 2 3 4 5 5 5 5 6 6 6 5 5 4 2 2 2 2 2 2 2 3 3 3 3 3 3 3 3 3 3 3 3 3 3
2 3 3 2 2 2 2 2 2 2 2 2 3 5 6 6 5 5 5 4 2 2 1 2 2 3 3 3 3 3 3 3 3 3 3 3 3 3 4 4 3 3 4
2 2 2 2 2 2 2 2 2 2 2 2 2 3 5 5 5 4 4 2 2 2 2 2 3 3 3 3 3 3 3 3 3 3 3 4 3 3 4 4 4 5 4
2 3 3 2 2 2 2 2 2 2 2 2 2 2 2 2 2 2 2 2 2 3 3 3 3 3 3 3 3 3 3 3 3 3 4 4 4 3 4 4 4 3 3
2 2 3 2 2 2 2 2 2 2 2 2 2 3 5 2 2 3 2 2 3 3 3 3 3 3 3 3 3 3 4 4 4 4 4 4 4 4 4 4 4 3 3
1 2 2 2 2 2 2 2 2 2 2 3 3 3 6 3 2 3 3 3 3 3 3 3 3 3 3 3 3 4 4 4 4 4 4 4 4 4 4 3 3 3 3
1 1 1 2 2 3 2 2 2 2 2 3 3 3 3 2 3 3 4 3 3 3 3 3 4 4 3 3 3 4 4 5 5 4 4 4 4 4 4 4 4 4 4
1 1 1 1 1 1 2 2 2 2 2 2 3 3 3 3 3 4 4 3 3 3 3 3 4 5 6 5 4 4 4 5 5 5 6 5 5 4 4 4 4 4 4
1 1 1 2 2 2 2 2 2 2 2 3 3 3 3 3 3 4 3 3 4 4 4 4 3 4 6 6 6 5 8 9 8 5 4 4 5 5 4 4 4 4 4
1 1 2 1 2 2 2 2 2 2 2 3 3 3 3 3 3 4 3 3 3 4 4 4 4 5 6 6 7 8 9 9 9 8 5 4 4 4 4 4 4 4 4
Wind_Direction
150 156 146 157 156 152 166 183 191 211 225 251 275 288 298 309 311 321 319 321 310 309 311 303 301 309 307 308 302 296 286 275 272 285 289 302 307 311 318 317 311 310 312
160 155 154 149 145 146 164 190 191 205 226 240 253 273 294 315 318 308 295 293 272 276 288 296 297 304 298 293 291 292 289 278 269 285 295 302 304 310 315 316 318 319 311
144 145 145 152 158 170 184 181 161 161 192 252 266 272 284 287 292 286 266 264 264 264 265 264 276 285 294 298 292 284 284 288 275 274 289 296 299 312 321 320 320 314 318
137 143 161 177 184 193 183 167 165 161 168 203 244 266 278 279 278 276 276 263 269 282 279 275 276 270 274 278 281 275 277 281 274 270 278 292 294 302 308 317 321 326 323
144 150 193 187 153 150 149 158 151 155 201 211 238 277 287 276 260 264 268 266 255 280 292 290 292 300 297 291 287 281 283 279 271 271 279 291 294 307 305 307 306 314 313
158 176 181 128 116 145 159 149 104 87 341 45 286 278 284 286 288 297 296 274 267 270 295 306 306 307 310 311 312 311 310 298 281 272 277 280 287 290 294 299 304 314 308
165 168 156 136 119 126 138 107 96 68 94 344 302 283 282 288 299 302 303 302 274 269 274 293 306 312 319 315 313 317 321 320 303 280 275 277 280 279 281 288 290 290 288
172 178 171 153 151 136 123 125 71 97 255 268 290 286 288 295 310 311 314 334 312 277 272 277 286 295 301 308 297 301 300 306 300 286 267 275 280 275 261 266 274 285 289
191 198 197 185 188 188 198 230 241 212 289 269 278 274 274 292 308 308 314 314 297 288 283 285 285 282 298 307 304 302 308 309 310 299 295 297 301 302 299 296 296 294 301
215 217 206 193 195 210 215 228 240 254 267 285 304 293 273 280 297 306 306 273 274 288 290 284 290 296 299 304 298 293 301 303 313 319 310 309 306 305 311 287 268 274 289
217 203 203 201 202 210 214 219 199 229 276 297 299 299 287 281 297 302 301 291 264 274 282 286 288 302 302 304 304 294 294 303 304 305 306 310 313 310 308 300 280 261 271
173 187 219 224 223 206 187 214 209 194 205 269 290 308 297 286 293 300 306 305 298 276 279 283 286 298 302 304 304 302 307 318 314 311 313 312 310 307 304 298 289 277 264
167 207 233 250 250 224 206 212 215 201 207 245 257 281 293 290 289 295 299 302 299 292 280 284 291 298 301 300 303 308 312 310 301 299 299 299 297 295 298 305 311 305 298
198 226 233 230 251 244 232 220 215 216 220 233 243 261 280 287 278 280 282 287 289 290 293 293 299 302 307 309 312 313 309 294 291 287 293 297 301 304 307 310 311 318 317
214 229 236 236 234 242 243 233 231 227 222 226 231 238 257 270 275 280 279 272 259 259 280 288 299 310 315 317 314 307 301 301 299 299 297 300 304 308 307 307 304 307 303
220 231 227 233 234 235 242 279 270 259 262 259 255 255 266 271 284 287 284 282 282 279 281 276 280 283 282 289 296 303 303 297 296 296 294 293 296 299 303 305 302 299 295
220 230 231 235 233 233 233 239 278 296 283 277 278 282 283 288 293 297 296 294 291 292 284 272 268 273 278 280 283 288 293 296 294 290 288 288 290 292 293 294 297 296 290
229 238 240 236 235 232 234 238 243 258 285 297 299 298 298 297 300 300 299 305 306 307 285 277 278 278 278 280 281 285 292 296 293 291 287 285 282 282 285 287 286 284 286
234 235 235 235 236 232 232 238 246 251 260 283 303 306 303 301 301 302 306 302 291 292 287 281 277 277 278 277 278 281 284 286 286 284 283 282 280 279 279 280 280 289 290
239 248 248 233 227 228 229 234 241 245 252 263 275 285 304 309 299 300 301 283 278 279 279 277 275 272 274 274 275 278 282 283 283 280 280 281 281 277 275 275 277 280 278
241 249 255 251 230 225 228 237 242 242 247 261 268 279 286 280 277 283 285 281 275 275 275 275 274 273 269 267 268 270 273 275 275 276 278 278 279 276 272 270 272 271 276
227 232 231 231 233 233 236 236 237 240 250 263 274 280 289 289 280 280 280 279 275 272 271 271 272 267 263 260 259 263 268 273 275 275 277 278 277 275 273 270 271 273 276
222 234 245 247 241 250 259 246 240 245 255 264 272 278 279 275 274 275 277 279 280 279 276 270 270 271 269 264 257 255 261 268 271 275 276 276 275 275 272 268 267 272 273
223 233 242 253 252 244 247 251 251 256 262 265 268 272 273 274 276 278 279 280 280 279 276 271 270 272 274 274 269 263 261 267 271 267 264 265 270 271 269 265 264 265 264
230 235 242 247 247 248 249 254 256 260 265 270 271 273 277 278 278 280 280 280 281 280 280 278 274 275 276 276 274 272 274 278 280 277 266 262 264 264 263 262 261 262 261
241 247 251 248 246 252 253 258 262 264 268 274 277 277 278 279 280 281 282 282 285 285 286 283 277 279 282 280 276 279 283 283 282 283 278 265 263 262 260 258 257 258 258